Oakland, MD

6:27 PM EST on November 21, 2019 (GMT -0500)
Oakland

Weather History for K2G4 - October, 2019

Change the Weather History Date:

Monday, October 21, 2019

  Actual Average (KMGW) Record (KMGW)
Temperature  
Mean Temperature 52 °F -  
Max Temperature 59 °F 61 °F 84 °F (1920)
Min Temperature 44 °F 41 °F 19 °F (1952)
Degree Days  
Heating Degree Days 14    
Growing Degree Days 2 (Base 50)    
Moisture  
Dew Point 47 °F    
Average Humidity 88    
Maximum Humidity 100    
Minimum Humidity 59    
Precipitation  
Precipitation 0.00 in - - ()
Sea Level Pressure  
Sea Level Pressure 30.02 in    
Wind  
Wind Speed 6 mph ()    
Max Wind Speed 18 mph    
Max Gust Speed 29 mph    
Visibility 9.6 miles    
Events      
Averages and records for this station are not official NWS values.
T = Trace of Precipitation, MM = Missing Value Source: Averaged Metar Reports

Daily Weather History Graph

Daily Weather History Graph

Search for Another Location

Airport or City:

Astronomy

Oct. 21, 2019 Rise Set
Actual Time 7:33 AM EDT 6:29 PM EDT
Civil Twilight 7:06 AM EDT 6:57 PM EDT
Nautical Twilight 6:34 AM EDT 7:28 PM EDT
Astronomical Twilight 6:03 AM EDT 7:59 PM EDT
Moon No Moon Rise 2:49 PM EDT
Length of Visible Light 11h 51m
Length of Day
10h 56m
Waning Gibbous, 48% of the Moon is Illuminated
Oct 21
Waning Gibbous
Oct 27
New
Nov 4
First Quarter
Nov 12
Full
Nov 19
Last Quarter

Hourly Weather History & Observations

Time (EDT) Temp. Windchill Dew Point Humidity Pressure Visibility Wind Dir Wind Speed Gust Speed Precip Events Conditions
12:05 AM 50.0 °F - 50.0 °F 100% 30.03 in 10.0 mi Calm Calm - N/A   Clear
12:25 AM 50.0 °F - 50.0 °F 100% 30.03 in 10.0 mi WNW 3.5 mph - N/A   Clear
12:45 AM 50.0 °F - 50.0 °F 100% 30.04 in 10.0 mi Calm Calm - N/A   Clear
1:25 AM 50.0 °F - 50.0 °F 100% 30.04 in 10.0 mi WNW 3.5 mph - N/A   Clear
1:45 AM 50.0 °F - 50.0 °F 100% 30.04 in 10.0 mi NW 3.5 mph - N/A   Clear
2:05 AM 50.0 °F - 50.0 °F 100% 30.04 in 10.0 mi Calm Calm - N/A   Clear
2:25 AM 50.0 °F - 50.0 °F 100% 30.04 in 10.0 mi NW 3.5 mph - N/A   Clear
2:45 AM 50.0 °F - 50.0 °F 100% 30.04 in 10.0 mi Calm Calm - N/A   Clear
3:05 AM 50.0 °F - 50.0 °F 100% 30.04 in 10.0 mi Calm Calm - N/A   Clear
3:25 AM 48.2 °F - 48.2 °F 100% 30.04 in 10.0 mi Calm Calm - N/A   Clear
3:45 AM 48.2 °F - 48.2 °F 100% 30.04 in 10.0 mi Calm Calm - N/A   Clear
4:05 AM 50.0 °F - 50.0 °F 100% 30.04 in 10.0 mi Calm Calm - N/A   Clear
4:25 AM 50.0 °F - 50.0 °F 100% 30.04 in 10.0 mi Calm Calm - N/A   Clear
4:45 AM 48.2 °F - 48.2 °F 100% 30.04 in 10.0 mi Calm Calm - N/A   Clear
5:05 AM 48.2 °F - 48.2 °F 100% 30.04 in 10.0 mi Calm Calm - N/A   Clear
5:25 AM 48.2 °F - 48.2 °F 100% 30.05 in 10.0 mi Calm Calm - N/A   Clear
5:45 AM 44.6 °F - 44.6 °F 100% 30.05 in 1.5 mi Calm Calm - N/A   Unknown
6:05 AM 44.6 °F - 44.6 °F 100% 30.06 in 10.0 mi Calm Calm - N/A   Clear
6:25 AM 46.4 °F - 46.4 °F 100% 30.06 in 10.0 mi Calm Calm - N/A   Clear
6:45 AM 46.4 °F 45.2 °F 46.4 °F 100% 30.06 in 10.0 mi East 3.5 mph - N/A   Clear
7:05 AM 46.4 °F 42.9 °F 46.4 °F 100% 30.05 in 10.0 mi East 6.9 mph - N/A   Clear
7:25 AM 44.6 °F 40.7 °F 44.6 °F 100% 30.05 in 10.0 mi ESE 6.9 mph - N/A   Clear
7:45 AM 44.6 °F 40.7 °F 44.6 °F 100% 30.05 in 10.0 mi ESE 6.9 mph - N/A   Clear
8:05 AM 44.6 °F 40.2 °F 44.6 °F 100% 30.05 in 10.0 mi ESE 8.1 mph - N/A   Clear
8:25 AM 44.6 °F 41.4 °F 44.6 °F 100% 30.05 in 10.0 mi ESE 5.8 mph - N/A   Clear
8:45 AM 46.4 °F 41.9 °F 44.6 °F 93% 30.06 in 10.0 mi SE 9.2 mph - N/A   Clear
9:05 AM 44.6 °F 40.2 °F 44.6 °F 100% 30.07 in 10.0 mi SE 8.1 mph - N/A   Clear
9:25 AM 44.6 °F 38.8 °F 44.6 °F 100% 30.06 in 10.0 mi SE 11.5 mph 18.4 mph N/A   Clear
9:45 AM 44.6 °F 39.2 °F 44.6 °F 100% 30.06 in 1.0 mi SE 10.4 mph - N/A   Overcast
10:05 AM 46.4 °F 40.7 °F 46.4 °F 100% 30.05 in 3.0 mi SE 12.7 mph - N/A   Mostly Cloudy
10:25 AM 46.4 °F 40.7 °F 46.4 °F 100% 30.05 in 10.0 mi ESE 12.7 mph - N/A   Scattered Clouds
10:45 AM 50.0 °F - 46.4 °F 87% 30.05 in 10.0 mi SE 16.1 mph 20.7 mph N/A   Clear
11:05 AM 50.0 °F - 46.4 °F 87% 30.06 in 10.0 mi SE 13.8 mph 24.2 mph N/A   Clear
11:25 AM 50.0 °F - 46.4 °F 87% 30.07 in 10.0 mi SE 16.1 mph 20.7 mph N/A   Scattered Clouds
11:45 AM 51.8 °F - 46.4 °F 82% 30.07 in 10.0 mi SE 16.1 mph 21.9 mph N/A   Scattered Clouds
12:05 PM 51.8 °F - 44.6 °F 76% 30.06 in 10.0 mi SE 13.8 mph 20.7 mph N/A   Clear
12:25 PM 53.6 °F - 44.6 °F 72% 30.06 in 10.0 mi ESE 15.0 mph 21.9 mph N/A   Clear
12:45 PM 53.6 °F - 44.6 °F 72% 30.06 in 10.0 mi ESE 16.1 mph 24.2 mph N/A   Clear
1:05 PM 55.4 °F - 44.6 °F 67% 30.05 in 10.0 mi ESE 11.5 mph 19.6 mph N/A   Clear
1:25 PM 55.4 °F - 44.6 °F 67% 30.04 in 10.0 mi SE 11.5 mph 21.9 mph N/A   Clear
1:45 PM 57.2 °F - 44.6 °F 63% 30.02 in 10.0 mi SE 16.1 mph 25.3 mph N/A   Clear
2:00 PM - - - %  in - Calm Calm - -  
2:20 PM - - - %  in - Calm Calm - -  
2:40 PM 59.0 °F - 44.6 °F 59% 29.99 in 10.0 mi SE 13.8 mph 26.5 mph N/A   Clear
3:00 PM 59.0 °F - 44.6 °F 59% 29.99 in 10.0 mi SE 16.1 mph 28.8 mph N/A   Clear
3:20 PM 59.0 °F - 44.6 °F 59% 30.00 in 10.0 mi SE 12.7 mph 23.0 mph N/A   Clear
3:40 PM 59.0 °F - 44.6 °F 59% 30.00 in 10.0 mi SE 15.0 mph 27.6 mph N/A   Clear
4:00 PM 59.0 °F - 44.6 °F 59% 30.00 in 10.0 mi SE 18.4 mph 25.3 mph N/A   Clear
4:20 PM 59.0 °F - 46.4 °F 63% 29.99 in 10.0 mi SE 9.2 mph 17.3 mph N/A   Clear
4:40 PM 59.0 °F - 46.4 °F 63% 30.00 in 10.0 mi SE 13.8 mph 20.7 mph N/A   Clear
5:00 PM 59.0 °F - 46.4 °F 63% 29.99 in 10.0 mi ESE 12.7 mph 24.2 mph N/A   Clear
5:20 PM 59.0 °F - 46.4 °F 63% 29.99 in 10.0 mi SE 13.8 mph 20.7 mph N/A   Clear
5:40 PM 55.4 °F - 46.4 °F 72% 29.99 in 10.0 mi SE 13.8 mph 19.6 mph N/A   Clear
6:00 PM 55.4 °F - 46.4 °F 72% 29.99 in 10.0 mi SE 11.5 mph 21.9 mph N/A   Clear
6:20 PM 53.6 °F - 46.4 °F 77% 29.99 in 10.0 mi ESE 12.7 mph - N/A   Clear
6:40 PM 53.6 °F - 48.2 °F 82% 29.98 in 10.0 mi ESE 13.8 mph 20.7 mph N/A   Clear
7:00 PM 51.8 °F - 48.2 °F 88% 29.97 in 10.0 mi SE 17.3 mph 23.0 mph N/A   Clear
7:20 PM 51.8 °F - 48.2 °F 88% 29.99 in 10.0 mi SE 16.1 mph 21.9 mph N/A   Clear
7:40 PM 51.8 °F - 48.2 °F 88% 29.99 in 10.0 mi SE 16.1 mph 26.5 mph N/A   Clear
8:00 PM 51.8 °F - 48.2 °F 88% 29.98 in 10.0 mi SE 16.1 mph 21.9 mph N/A   Clear
8:20 PM 51.8 °F - 48.2 °F 88% 29.99 in 10.0 mi SE 16.1 mph 21.9 mph N/A   Clear
8:40 PM 51.8 °F - 48.2 °F 88% 29.99 in 10.0 mi SE 15.0 mph 19.6 mph N/A   Clear
9:00 PM 51.8 °F - 48.2 °F 88% 29.99 in 10.0 mi SE 15.0 mph - N/A   Clear
9:20 PM 51.8 °F - 48.2 °F 88% 29.99 in 10.0 mi SE 13.8 mph 21.9 mph N/A   Scattered Clouds
9:40 PM 51.8 °F - 50.0 °F 94% 29.96 in 10.0 mi SE 12.7 mph 18.4 mph N/A   Scattered Clouds
10:20 PM 51.8 °F - 50.0 °F 94% 29.99 in 10.0 mi SE 15.0 mph 21.9 mph N/A   Clear
10:40 PM 51.8 °F - 50.0 °F 94% 29.98 in 10.0 mi SE 12.7 mph 19.6 mph N/A   Clear
11:00 PM 50.0 °F - 50.0 °F 100% 29.96 in 10.0 mi SE 13.8 mph 20.7 mph N/A   Clear
11:20 PM 51.8 °F - 50.0 °F 94% 29.96 in 10.0 mi SE 12.7 mph 18.4 mph N/A   Clear
11:40 PM 51.8 °F - 50.0 °F 94% 29.97 in 10.0 mi SE 10.4 mph - N/A   Clear